COSMOS 2534 (758)

Last updated on Jan. 21, 2021, 6:17 a.m. UTC

1 44299U 19030A   21020.76707926  .00000025  00000-0  00000-0 0  9997
2 44299  64.5568 259.5531 0012555 296.5431  60.2266  2.13101925 12876
UTC
Height (km)
Latitude
Longitude
Inclination
Orbital Period
UTC large
Height (km)
Speed (km/s)
/
Latitude / Longitude
Inclination (degrees)
Orbital Period (minutes)
Azimuth
Elevation
Range (km)
Doppler Factor
iOS Compass Heading
iOS Angle

Next 30 passes for location: Hong Kong

Rise time Rise Azimuth (degrees) Set time Set Azimuth (degrees) Duration Max altitude (degrees)

No matching passes for this satellites